Fairbanks, AK

12:25 PM AKST on December 12, 2019 (GMT -0900)
Fairbanks International

Weather History for PAFA - November, 2019

Change the Weather History Date:

Friday, November 15, 2019

  Actual Average Record
Temperature  
Mean Temperature 4 °F 2 °F  
Max Temperature 8 °F 10 °F 43 °F (1916)
Min Temperature 0 °F -5 °F -35 °F (2011)
Degree Days  
Heating Degree Days 61 63  
Month to date heating degree days 794 887  
Since 1 July heating degree days 2626 3146  
Cooling Degree Days 0 0  
Month to date cooling degree days 0 0  
Year to date cooling degree days 123 61  
Moisture  
Dew Point -5 °F    
Average Humidity 64    
Maximum Humidity 80    
Minimum Humidity 53    
Precipitation  
Precipitation 0.05 in 0.03 in 0.40 in (1994)
Month to date precipitation 1.33 0.35  
Year to date precipitation 15.52 9.85  
Snow  
Snow 0.70 in 0.50 in 6.20 in (1994)
Month to date snowfall 15.0 6.6  
Since 1 July snowfall 18.3 19.2  
Since 1 September snowfall 18.3 19.2  
Snow Depth 11.00 in    
Sea Level Pressure  
Sea Level Pressure 29.64 in    
Wind  
Wind Speed 11 mph ()    
Max Wind Speed 16 mph    
Max Gust Speed -    
Visibility 7.2 miles    
Events Snow    
T = Trace of Precipitation, MM = Missing Value Source: Averaged Metar Reports

Daily Weather History Graph

Daily Weather History Graph

Search for Another Location

Airport or City:

Astronomy

Nov. 15, 2019 Rise Set
Actual Time 9:26 AM AKST 3:44 PM AKST
Civil Twilight 8:23 AM AKST 4:47 PM AKST
Nautical Twilight 7:21 AM AKST 5:49 PM AKST
Astronomical Twilight 6:23 AM AKST 6:47 PM AKST
Moon 5:20 PM AKST (11/15) 1:39 PM AKST (11/15)
Length of Visible Light 8h 23m
Length of Day
6h 18m
Waning Gibbous, 89% of the Moon is Illuminated
Nov 15
Waning Gibbous
Nov 19
Last Quarter
Nov 26
New
Dec 3
First Quarter
Dec 11
Full

Hourly Weather History & Observations

Time (AKST) Temp. Windchill Dew Point Humidity Pressure Visibility Wind Dir Wind Speed Gust Speed Precip Events Conditions
12:18 AM 8.1 °F -8.4 °F 1.9 °F 76% 29.54 in 0.8 mi NNE 13.8 mph - N/A Snow Light Snow
12:53 AM 7.0 °F -11.0 °F 1.9 °F 80% 29.59 in 0.8 mi NNE 16.1 mph - N/A Snow Light Snow
1:20 AM 7.0 °F -9.1 °F 1.9 °F 80% 29.55 in 1.0 mi NNE 12.7 mph - N/A Snow Light Snow
1:53 AM 7.0 °F -9.8 °F 1.0 °F 77% 29.60 in 1.0 mi NNE 13.8 mph - N/A Snow Light Snow
2:53 AM 7.0 °F -9.1 °F 1.9 °F 80% 29.62 in 1.5 mi NNE 12.7 mph - N/A Snow Light Snow
3:53 AM 7.0 °F -7.5 °F 1.0 °F 77% 29.62 in 2.5 mi North 10.4 mph - N/A Snow Light Snow
4:09 AM 7.0 °F -6.6 °F 1.0 °F 77% 29.58 in 4.0 mi North 9.2 mph - N/A Snow Light Snow
4:53 AM 7.0 °F -8.3 °F -0.9 °F 70% 29.63 in 4.0 mi NNE 11.5 mph - N/A Snow Light Snow
5:53 AM 7.0 °F -10.4 °F -2.0 °F 67% 29.64 in 5.0 mi NNE 15.0 mph - N/A Snow Light Snow
6:53 AM 5.0 °F -10.0 °F -4.0 °F 66% 29.64 in 9.0 mi NE 10.4 mph - N/A Snow Light Snow
7:53 AM 5.0 °F -10.8 °F -6.0 °F 61% 29.64 in 10.0 mi NNE 11.5 mph - N/A   Scattered Clouds
8:53 AM 1.9 °F -12.9 °F -8.0 °F 63% 29.66 in 10.0 mi NE 9.2 mph - N/A   Scattered Clouds
9:53 AM 1.9 °F -14.7 °F -9.0 °F 60% 29.66 in 10.0 mi NE 11.5 mph - N/A   Mostly Cloudy
10:53 AM 1.0 °F -14.0 °F -9.0 °F 63% 29.67 in 10.0 mi NE 9.2 mph - N/A   Mostly Cloudy
11:53 AM 1.9 °F -11.8 °F -9.0 °F 60% 29.67 in 10.0 mi NE 8.1 mph - N/A   Mostly Cloudy
12:53 PM 5.0 °F -13.0 °F -8.0 °F 55% 29.67 in 10.0 mi NE 15.0 mph - N/A   Mostly Cloudy
1:53 PM 3.9 °F -11.3 °F -9.0 °F 55% 29.67 in 10.0 mi NE 10.4 mph - N/A   Mostly Cloudy
2:53 PM 7.0 °F -9.1 °F -6.0 °F 55% 29.67 in 10.0 mi NE 12.7 mph - N/A   Mostly Cloudy
5:53 PM 7.0 °F -7.5 °F -7.1 °F 53% 29.66 in 10.0 mi NNE 10.4 mph - N/A   Mostly Cloudy
6:53 PM 5.0 °F -10.8 °F -8.0 °F 55% 29.66 in 10.0 mi NNE 11.5 mph - N/A   Mostly Cloudy
7:53 PM 3.0 °F -11.5 °F -9.0 °F 57% 29.66 in 10.0 mi NE 9.2 mph - N/A   Scattered Clouds
8:53 PM 3.0 °F -9.3 °F -9.0 °F 57% 29.66 in 10.0 mi NNE 6.9 mph - N/A   Mostly Cloudy
9:53 PM 6.1 °F -7.8 °F -7.1 °F 55% 29.66 in 10.0 mi NE 9.2 mph - N/A   Mostly Cloudy
10:53 PM 7.0 °F -9.8 °F -7.1 °F 53% 29.65 in 10.0 mi NNE 13.8 mph - N/A   Mostly Cloudy
11:53 PM 7.0 °F -8.3 °F -7.1 °F 53% 29.64 in 10.0 mi NNE 11.5 mph - N/A   Mostly Cloudy